Orbital Elements
Epoch 2013 Mar. 9.0 TT = JDT 2456360.5
T 2013 Feb. 22.89957 TT MPC
q 3.9887126 (2000.0) P Q
z +0.0005083 Peri. 320.96147 -0.62074253 -0.71916087
+/-0.0000025 Node 200.75520 -0.28739071 -0.16180327
e 0.9979727 Incl. 118.22893 -0.72944177 +0.67574207
From 101 observations 2013 May 8-2014 Mar. 28, mean residual 0".4.
|